Notices

What's New in latest Release from April 7th, 2021:

- Updated Glossary, including Speed of Maximum Gust, and Total Hourly Precipitation

- Updated national and regional climate services offices contacts and prices information

- Addition of station inventory lists for 1981-2010, 1971-2000, and 1961-1990 Normals.

If you haven't already, please take our survey and provide feedback about our website: https://eccc.sondage-survey.ca/f/LanguageSelection.aspx?s=442ca660-fcf1-47c0-95a9-59707d6fd709

Hourly Data Report for May 08, 2021

MIRAMICHI RCS
NEW BRUNSWICK
Current Station Operator: ECCC - MSC

47°00'34.000" N
65°27'54.000" W
33.00 m
8100989
71744
ACQ

Download Data

Hourly Data (May 2021)
Hourly Data Report for May 8, 2021
TIME
LST
Temp Definition
°C
Dew Point Definition
°C
Rel Hum Definition
%
Precip. Amount Definition
mm

Wind Dir Definition
10's deg

Wind Spd Definition
km/h
Visibility Definition
km
Stn Press Definition
kPa
Hmdx Definition


Wind Chill Definition


Weather Definition


00:00 2.8 2.5 98 LegendMM 6 10   101.34     LegendNANA
01:00 2.8 2.5 98 LegendMM 7 10   101.33     LegendNANA
02:00 2.8 2.3 97 LegendMM 5 10   101.27     LegendNANA
03:00 2.4 2.1 98 LegendMM 8 12   101.34     LegendNANA
04:00 2.0 1.7 98 LegendMM 5 10   101.29     LegendNANA
05:00 1.9 1.6 98 LegendMM 4 9   101.26     LegendNANA
06:00 1.7 1.5 99 LegendMM 4 13   101.17     LegendNANA
07:00 2.4 2.2 99 LegendMM 6 13   101.25     LegendNANA
08:00 3.2 2.6 96 LegendMM 7 13   101.26     LegendNANA
09:00 3.8 2.9 94 LegendMM 4 20   101.05     LegendNANA
10:00 4.2 2.3 88 LegendMM 5 24   101.01     LegendNANA
11:00 4.4 2.0 84 LegendMM 5 24   100.97     LegendNANA
12:00 5.4 1.8 78 LegendMM 5 22   100.93     LegendNANA
13:00 5.1 1.8 79 LegendMM 4 25   100.80     LegendNANA
14:00 4.8 2.1 82 LegendMM 4 22   100.76     LegendNANA
15:00 5.3 2.0 80 LegendMM 4 19   100.56     LegendNANA
16:00 5.1 2.6 84 LegendMM 3 23   100.43     LegendNANA
17:00 5.0 3.8 92 LegendMM 2 16   100.31     LegendNANA
18:00 5.6 4.3 91 LegendMM 3 22   100.20     LegendNANA
19:00 5.3 4.1 92 LegendMM 2 18   100.11     LegendNANA
20:00 5.0 3.7 91 LegendMM 3 20   100.06     LegendNANA
21:00 4.6 3.3 92 LegendMM 2 18   100.02     LegendNANA
22:00 4.4 3.0 90 LegendMM 1 19   99.93     LegendNANA
23:00 4.5 3.2 91 LegendMM 1 17   99.85     LegendNANA

Notes on Data Quality.

Legend

  • E = Estimated
  • M = Missing
  • NA = Not Available*
  • [empty] = Indicates an unobserved value
Date modified: